Location: Ambatotampy
(18.8181°S, 47.6186°E)
Time: 23:58:52
(UTC+00:00)

Timation 1 Rocket - Pass Details

Date: 21 January 2021
Orbit: 898 x 909 km, 70.0° (Epoch: 24 February)

Event Time Altitude Azimuth Distance (km) Brightness Sun altitude
Exits shadow 00:19:04 72° 12° (NNE) 947 4.2 -27.9°
Maximum altitude 00:19:40 81° 73° (ENE) 916 4.3 -27.8°
Drops below altitude 10° 00:25:39 10° 159° (SSE) 2,586 7.4 -26.6°
Sets 00:28:09 0° 160° (SSE) 3,531 8.2 -26.1°
